Location: Unspecified
(48.7670°N, 0.0000°E)
Time: 03:41:29
(UTC+00:00)

Vanguard 2 Rocket - Pass Details

Date: 05 October 2020
Orbit: 554 x 3326 km, 32.9° (Epoch: 26 October)

Event Time Altitude Azimuth Distance (km) Brightness Sun altitude
Exits shadow 00:48:14 34° 130° (SE) 4,253 10.0 -44.3°
Drops below altitude 10° 01:00:33 10° 98° (E) 6,276 11.3 -43.5°
Sets 01:06:03 0° 92° (E) 7,304 11.8 -43.1°
